Location: Navalmoral
(40.4603°N, 4.7686°W)
Time: 09:19:53
(UTC+00:00)

Meteor 2-21 - Pass Details

Date: 05 August 2024
Orbit: 934 x 966 km, 82.5° (Epoch: 15 September)

Event Time Altitude Azimuth Distance (km) Brightness Sun altitude
Rises 22:08:57 0° 354° (N) 3,661 8.4 -24.7°
Reaches altitude 10° 22:11:29 10° 357° (N) 2,712 7.6 -25.0°
Maximum altitude 22:17:41 69° 81° (E) 1,030 4.4 -25.7°
Enters shadow 22:18:31 62° 126° (SE) 1,083 4.4 -25.8°
